Time,TemperatureF,DewpointF,PressureIn,WindDirection,WindDirectionDegrees,WindSpeedMPH,WindSpeedGustMPH,Humidity,HourlyPrecipIn,Conditions,Clouds,dailyrainin,SoftwareType,DateUTC
2013-02-13 00:06:00,28.6,20.4,29.75,WSW,247,2.7,-999.0,71,-99.99,,,0.00,Acu-Link.com,2013-02-13 06:06:00,
2013-02-13 00:21:00,28.9,20.4,29.75,WSW,247,3.7,-999.0,70,-99.99,,,0.00,Acu-Link.com,2013-02-13 06:21:00,
2013-02-13 00:37:00,28.8,20.3,29.75,WSW,247,2.7,-999.0,70,-99.99,,,0.00,Acu-Link.com,2013-02-13 06:37:00,
2013-02-13 00:52:00,28.8,20.3,29.74,WSW,247,3.2,-999.0,70,-99.99,,,0.00,Acu-Link.com,2013-02-13 06:52:00,
2013-02-13 01:07:00,28.2,20.0,29.74,West,270,2.7,-999.0,71,-99.99,,,0.00,Acu-Link.com,2013-02-13 07:07:00,
2013-02-13 01:23:00,28.4,20.5,29.74,West,270,4.2,-999.0,72,-99.99,,,0.00,Acu-Link.com,2013-02-13 07:23:00,
2013-02-13 01:38:00,29.1,20.9,29.73,West,270,3.7,-999.0,71,-99.99,,,0.00,Acu-Link.com,2013-02-13 07:38:00,
2013-02-13 01:53:00,28.6,20.7,29.73,NW,315,2.7,-999.0,72,-99.99,,,0.00,Acu-Link.com,2013-02-13 07:53:00,
2013-02-13 02:09:00,28.8,20.9,29.73,West,270,2.2,-999.0,72,-99.99,,,0.00,Acu-Link.com,2013-02-13 08:09:00,
2013-02-13 02:24:00,29.3,21.1,29.73,NW,315,3.2,-999.0,71,-99.99,,,0.00,Acu-Link.com,2013-02-13 08:24:00,
2013-02-13 02:40:00,28.0,20.5,29.74,NW,315,2.2,-999.0,73,-99.99,,,0.00,Acu-Link.com,2013-02-13 08:40:00,
2013-02-13 02:55:00,27.7,20.2,29.73,West,270,2.7,-999.0,73,-99.99,,,0.00,Acu-Link.com,2013-02-13 08:55:00,
2013-02-13 03:15:00,28.6,21.1,29.72,West,270,4.7,-999.0,73,-99.99,,,0.00,Acu-Link.com,2013-02-13 09:15:00,
2013-02-13 03:30:00,27.7,20.5,29.72,SSW,202,1.1,-999.0,74,-99.99,,,0.00,Acu-Link.com,2013-02-13 09:30:00,
2013-02-13 03:46:00,27.1,19.6,29.72,NE,45,2.7,-999.0,73,-99.99,,,0.00,Acu-Link.com,2013-02-13 09:46:00,
2013-02-13 04:01:00,26.8,20.3,29.71,WNW,292,2.7,-999.0,76,-99.99,,,0.00,Acu-Link.com,2013-02-13 10:01:00,
2013-02-13 04:16:00,27.9,21.3,29.71,West,270,5.8,-999.0,76,-99.99,,,0.00,Acu-Link.com,2013-02-13 10:16:00,
2013-02-13 04:31:00,27.3,20.8,29.70,West,270,4.2,-999.0,76,-99.99,,,0.00,Acu-Link.com,2013-02-13 10:31:00,
2013-02-13 04:46:00,26.8,20.6,29.69,West,270,3.2,-999.0,77,-99.99,,,0.00,Acu-Link.com,2013-02-13 10:46:00,
2013-02-13 05:02:00,26.6,20.4,29.70,West,270,3.2,-999.0,77,-99.99,,,0.00,Acu-Link.com,2013-02-13 11:02:00,
2013-02-13 05:17:00,27.1,20.6,29.70,SW,225,2.2,-999.0,76,-99.99,,,0.00,Acu-Link.com,2013-02-13 11:17:00,
2013-02-13 05:32:00,27.1,20.6,29.69,WSW,247,3.2,-999.0,76,-99.99,,,0.00,Acu-Link.com,2013-02-13 11:32:00,
2013-02-13 05:48:00,27.5,20.9,29.69,WSW,247,3.2,-999.0,76,-99.99,,,0.00,Acu-Link.com,2013-02-13 11:48:00,
2013-02-13 06:03:00,28.6,21.1,29.69,West,270,6.3,-999.0,73,-99.99,,,0.00,Acu-Link.com,2013-02-13 12:03:00,
2013-02-13 06:18:00,27.9,20.4,29.69,WNW,292,4.2,-999.0,73,-99.99,,,0.00,Acu-Link.com,2013-02-13 12:18:00,
2013-02-13 06:33:00,27.5,20.6,29.68,West,270,6.3,-999.0,75,-99.99,,,0.00,Acu-Link.com,2013-02-13 12:33:00,
2013-02-13 06:48:00,26.8,20.3,29.69,West,270,4.7,-999.0,76,-99.99,,,0.00,Acu-Link.com,2013-02-13 12:48:00,
2013-02-13 07:04:00,26.8,20.3,29.69,West,270,2.7,-999.0,76,-99.99,,,0.00,Acu-Link.com,2013-02-13 13:04:00,
2013-02-13 07:19:00,26.6,20.4,29.69,WSW,247,4.7,-999.0,77,-99.99,,,0.00,Acu-Link.com,2013-02-13 13:19:00,
2013-02-13 07:34:00,26.4,20.2,29.70,West,270,5.8,-999.0,77,-99.99,,,0.00,Acu-Link.com,2013-02-13 13:34:00,
2013-02-13 07:49:00,27.3,20.8,29.70,WSW,247,5.3,-999.0,76,-99.99,,,0.00,Acu-Link.com,2013-02-13 13:49:00,
2013-02-13 08:05:00,29.1,21.5,29.70,WSW,247,4.7,-999.0,73,-99.99,,,0.00,Acu-Link.com,2013-02-13 14:05:00,
2013-02-13 08:20:00,30.2,21.9,29.70,West,270,3.7,-999.0,71,-99.99,,,0.00,Acu-Link.com,2013-02-13 14:20:00,
2013-02-13 08:35:00,30.4,22.8,29.70,WSW,247,3.2,-999.0,73,-99.99,,,0.00,Acu-Link.com,2013-02-13 14:35:00,
2013-02-13 08:50:00,31.5,23.5,29.70,NW,315,4.2,-999.0,72,-99.99,,,0.00,Acu-Link.com,2013-02-13 14:50:00,
2013-02-13 09:05:00,32.0,23.7,29.70,WNW,292,5.3,-999.0,71,-99.99,,,0.00,Acu-Link.com,2013-02-13 15:05:00,
2013-02-13 09:20:00,33.1,24.7,29.70,West,270,3.7,-999.0,71,-99.99,,,0.00,Acu-Link.com,2013-02-13 15:20:00,
2013-02-13 09:36:00,35.8,25.9,29.69,WSW,247,4.2,-999.0,67,-99.99,,,0.00,Acu-Link.com,2013-02-13 15:36:00,
2013-02-13 09:51:00,36.3,25.7,29.69,West,270,4.7,-999.0,65,-99.99,,,0.00,Acu-Link.com,2013-02-13 15:51:00,
2013-02-13 10:06:00,36.5,26.2,29.70,West,270,5.8,-999.0,66,-99.99,,,0.00,Acu-Link.com,2013-02-13 16:06:00,
2013-02-13 10:21:00,38.7,26.4,29.70,WSW,247,6.8,-999.0,61,-99.99,,,0.00,Acu-Link.com,2013-02-13 16:21:00,
2013-02-13 10:36:00,40.5,27.3,29.69,SW,225,4.7,-999.0,59,-99.99,,,0.00,Acu-Link.com,2013-02-13 16:36:00,
2013-02-13 10:52:00,42.4,27.4,29.68,WSW,247,4.7,-999.0,55,-99.99,,,0.00,Acu-Link.com,2013-02-13 16:52:00,
2013-02-13 11:07:00,44.6,28.5,29.68,WSW,247,6.3,-999.0,53,-99.99,,,0.00,Acu-Link.com,2013-02-13 17:07:00,
2013-02-13 11:22:00,45.3,28.7,29.68,SW,225,8.3,-999.0,52,-99.99,,,0.00,Acu-Link.com,2013-02-13 17:22:00,
2013-02-13 11:38:00,46.6,29.0,29.67,WSW,247,7.8,-999.0,50,-99.99,,,0.00,Acu-Link.com,2013-02-13 17:38:00,
2013-02-13 11:53:00,47.7,29.0,29.66,West,270,7.8,-999.0,48,-99.99,,,0.00,Acu-Link.com,2013-02-13 17:53:00,
2013-02-13 12:08:00,49.8,29.9,29.65,West,270,7.8,-999.0,46,-99.99,,,0.00,Acu-Link.com,2013-02-13 18:08:00,
2013-02-13 12:24:00,50.2,29.1,29.65,SW,225,9.9,-999.0,44,-99.99,,,0.00,Acu-Link.com,2013-02-13 18:24:00,
2013-02-13 12:39:00,51.3,29.6,29.64,WSW,247,8.3,-999.0,43,-99.99,,,0.00,Acu-Link.com,2013-02-13 18:39:00,
2013-02-13 12:54:00,51.6,29.8,29.63,West,270,10.9,-999.0,43,-99.99,,,0.00,Acu-Link.com,2013-02-13 18:54:00,
2013-02-13 13:09:00,52.2,29.8,29.62,WSW,247,8.9,-999.0,42,-99.99,,,0.00,Acu-Link.com,2013-02-13 19:09:00,
2013-02-13 13:25:00,52.5,29.5,29.61,SW,225,12.5,-999.0,41,-99.99,,,0.00,Acu-Link.com,2013-02-13 19:25:00,
2013-02-13 13:40:00,53.1,29.4,29.61,West,270,9.9,-999.0,40,-99.99,,,0.00,Acu-Link.com,2013-02-13 19:40:00,
2013-02-13 13:55:00,53.4,29.7,29.61,West,270,12.5,-999.0,40,-99.99,,,0.00,Acu-Link.com,2013-02-13 19:55:00,
2013-02-13 14:10:00,53.2,28.9,29.60,West,270,9.4,-999.0,39,-99.99,,,0.00,Acu-Link.com,2013-02-13 20:10:00,
2013-02-13 14:25:00,54.1,29.7,29.59,WSW,247,9.4,-999.0,39,-99.99,,,0.00,Acu-Link.com,2013-02-13 20:25:00,
2013-02-13 14:40:00,54.3,28.6,29.59,SW,225,13.0,-999.0,37,-99.99,,,0.00,Acu-Link.com,2013-02-13 20:40:00,
2013-02-13 14:55:00,54.7,28.9,29.59,WSW,247,15.0,-999.0,37,-99.99,,,0.00,Acu-Link.com,2013-02-13 20:55:00,
2013-02-13 15:11:00,54.9,29.8,29.58,WSW,247,8.9,-999.0,38,-99.99,,,0.00,Acu-Link.com,2013-02-13 21:11:00,
2013-02-13 15:26:00,55.0,28.5,29.58,WNW,292,13.5,-999.0,36,-99.99,,,0.00,Acu-Link.com,2013-02-13 21:26:00,
2013-02-13 15:41:00,54.7,28.3,29.58,West,270,7.8,-999.0,36,-99.99,,,0.00,Acu-Link.com,2013-02-13 21:41:00,
2013-02-13 15:57:00,54.5,27.4,29.57,West,270,9.9,-999.0,35,-99.99,,,0.00,Acu-Link.com,2013-02-13 21:57:00,
2013-02-13 16:12:00,54.5,28.1,29.57,SW,225,6.8,-999.0,36,-99.99,,,0.00,Acu-Link.com,2013-02-13 22:12:00,
2013-02-13 16:27:00,54.3,27.9,29.56,WSW,247,11.9,-999.0,36,-99.99,,,0.00,Acu-Link.com,2013-02-13 22:27:00,
2013-02-13 16:43:00,52.9,27.3,29.57,West,270,13.0,-999.0,37,-99.99,,,0.00,Acu-Link.com,2013-02-13 22:43:00,
2013-02-13 16:58:00,52.7,27.8,29.57,West,270,9.4,-999.0,38,-99.99,,,0.00,Acu-Link.com,2013-02-13 22:58:00,
2013-02-13 17:13:00,52.2,27.4,29.57,WSW,247,9.4,-999.0,38,-99.99,,,0.00,Acu-Link.com,2013-02-13 23:13:00,
2013-02-13 17:28:00,52.0,27.2,29.58,West,270,8.3,-999.0,38,-99.99,,,0.00,Acu-Link.com,2013-02-13 23:28:00,
2013-02-13 17:43:00,50.2,27.4,29.57,WSW,247,6.3,-999.0,41,-99.99,,,0.00,Acu-Link.com,2013-02-13 23:43:00,
2013-02-13 17:59:00,47.8,26.4,29.57,WSW,247,4.7,-999.0,43,-99.99,,,0.00,Acu-Link.com,2013-02-13 23:59:00,
2013-02-13 18:14:00,46.4,26.8,29.57,WSW,247,6.3,-999.0,46,-99.99,,,0.00,Acu-Link.com,2013-02-14 00:14:00,
2013-02-13 18:29:00,45.1,26.6,29.58,WSW,247,4.2,-999.0,48,-99.99,,,0.00,Acu-Link.com,2013-02-14 00:29:00,
2013-02-13 18:45:00,44.4,26.5,29.57,SW,225,5.3,-999.0,49,-99.99,,,0.00,Acu-Link.com,2013-02-14 00:45:00,
2013-02-13 19:00:00,45.0,27.0,29.58,SW,225,4.2,-999.0,49,-99.99,,,0.00,Acu-Link.com,2013-02-14 01:00:00,
2013-02-13 19:15:00,44.4,26.9,29.57,SW,225,6.3,-999.0,50,-99.99,,,0.00,Acu-Link.com,2013-02-14 01:15:00,
2013-02-13 19:30:00,44.4,27.4,29.58,SW,225,6.3,-999.0,51,-99.99,,,0.00,Acu-Link.com,2013-02-14 01:30:00,
2013-02-13 19:45:00,43.3,27.3,29.59,WSW,247,7.8,-999.0,53,-99.99,,,0.00,Acu-Link.com,2013-02-14 01:45:00,
2013-02-13 20:01:00,43.2,28.1,29.58,West,270,11.9,-999.0,55,-99.99,,,0.00,Acu-Link.com,2013-02-14 02:01:00,
2013-02-13 20:16:00,42.4,27.8,29.59,WSW,247,12.5,-999.0,56,-99.99,,,0.00,Acu-Link.com,2013-02-14 02:16:00,
2013-02-13 20:31:00,42.3,27.7,29.59,WSW,247,9.9,-999.0,56,-99.99,,,0.00,Acu-Link.com,2013-02-14 02:31:00,
2013-02-13 20:47:00,42.1,28.0,29.59,West,270,7.3,-999.0,57,-99.99,,,0.00,Acu-Link.com,2013-02-14 02:47:00,
2013-02-13 21:02:00,41.7,28.0,29.59,West,270,8.9,-999.0,58,-99.99,,,0.00,Acu-Link.com,2013-02-14 03:02:00,
2013-02-13 21:18:00,41.5,27.8,29.59,West,270,7.3,-999.0,58,-99.99,,,0.00,Acu-Link.com,2013-02-14 03:18:00,
2013-02-13 21:33:00,41.5,27.8,29.59,West,270,6.8,-999.0,58,-99.99,,,0.00,Acu-Link.com,2013-02-14 03:33:00,
2013-02-13 21:48:00,41.4,28.2,29.59,West,270,9.4,-999.0,59,-99.99,,,0.00,Acu-Link.com,2013-02-14 03:48:00,
2013-02-13 22:03:00,41.0,27.8,29.59,West,270,10.4,-999.0,59,-99.99,,,0.00,Acu-Link.com,2013-02-14 04:03:00,
2013-02-13 22:18:00,41.2,28.4,29.59,West,270,9.9,-999.0,60,-99.99,,,0.00,Acu-Link.com,2013-02-14 04:18:00,
2013-02-13 22:34:00,40.1,28.1,29.60,West,270,10.4,-999.0,62,-99.99,,,0.00,Acu-Link.com,2013-02-14 04:34:00,
2013-02-13 22:49:00,39.4,28.3,29.60,West,270,9.9,-999.0,64,-99.99,,,0.00,Acu-Link.com,2013-02-14 04:49:00,
2013-02-13 23:04:00,39.0,28.2,29.60,West,270,7.3,-999.0,65,-99.99,,,0.00,Acu-Link.com,2013-02-14 05:04:00,
2013-02-13 23:19:00,39.7,28.9,29.61,West,270,11.4,-999.0,65,-99.99,,,0.00,Acu-Link.com,2013-02-14 05:19:00,
2013-02-13 23:35:00,40.1,28.9,29.61,West,270,10.9,-999.0,64,-99.99,,,0.00,Acu-Link.com,2013-02-14 05:35:00,
2013-02-13 23:50:00,40.8,29.6,29.63,West,270,16.1,-999.0,64,-99.99,,,0.00,Acu-Link.com,2013-02-14 05:50:00,